Japanese version Home page |
Updated on May 13, 2023 |
Profile
|
Orbital ElementsEpoch 2023 Feb. 25.0 TT = JDT 2460000.5 T 2019 Sept. 12.55589 TT Rudenko q 9.1872063 (2000.0) P Q z -0.0004600 Peri. 260.37108 +0.22117767 +0.65298105 +/-0.0000226 Node 52.64252 +0.00940704 +0.74129152 e 1.0042259 Incl. 65.68537 -0.97518816 +0.15525023 >From 88 observations 2019 June 27-Dec. 22, mean residual 0".3.
|
Magnitudes Graphm1 = 4.5 + 5 log d + 10.0 log r
|
The orbital elements are published on M.P.E.C. 2023-J102.
|